Location: Bayshore Village Mobile Home Park
(26.6945°N, 81.8642°W)
Time: 21:46:42
(UTC+00:00)

USA 238 - Pass Details

Date: 17 June 2021
Orbit: 989 x 1223 km, 63.4° (Epoch: 16 July)

Event Time Altitude Azimuth Distance (km) Brightness Sun altitude
Rises 01:10:15 0° 217° (SW) 3,684 6.6 -10.0°
Reaches altitude 10° 01:12:50 10° 220° (SW) 2,742 6.0 -10.5°
Maximum altitude 01:19:09 60° 300° (WNW) 1,144 4.2 -11.7°
Drops below altitude 10° 01:25:42 10° 19° (NNE) 2,841 6.1 -12.9°
Sets 01:28:26 0° 23° (NNE) 3,828 6.8 -13.4°
